Casa Grande, AZ

4:23 AM MST on May 25, 2017 (GMT -0700)
Casa Grande Municipal

Weather History for KCGZ - December, 2012

Change the Weather History Date:

Monday, December 31, 2012

  Actual Average Record
Temperature  
Mean Temperature 44 °F -  
Max Temperature 51 °F 61 °F 75 °F (1998)
Min Temperature 37 °F 36 °F 24 °F (2015)
Degree Days  
Heating Degree Days 21    
Moisture  
Dew Point 32 °F    
Average Humidity 64    
Maximum Humidity 87    
Minimum Humidity 38    
Precipitation  
Precipitation 0.00 in - - ()
Sea Level Pressure  
Sea Level Pressure 30.11 in    
Wind  
Wind Speed 5 mph (WSW)    
Max Wind Speed 13 mph    
Max Gust Speed 17 mph    
Visibility 10 miles    
Events      
Averages and records for this station are not official NWS values.
T = Trace of Precipitation, MM = Missing Value Source: NWS Daily Summary

Daily Weather History Graph

Daily Weather History Graph

Search for Another Location

Airport or City:

Trip Planner

Search our weather history database for the weather conditions in past years. The results will help you decide how hot, cold, wet, or windy it might be!

Date:

Astronomy

Dec. 31, 2012 Rise Set
Actual Time 7:29 AM MST 5:31 PM MST
Civil Twilight 7:02 AM MST 5:58 PM MST
Nautical Twilight 6:31 AM MST 6:29 PM MST
Astronomical Twilight 6:01 AM MST 6:59 PM MST
Moon 8:53 PM MST (12/31) 9:23 AM MST (12/31)
Length of Visible Light 10h 55m
Length of Day
10h 01m
Waning Gibbous, 90% of the Moon is Illuminated
Dec 31
Waning Gibbous
Jan 4
Last Quarter
Jan 11
New
Jan 18
First Quarter
Jan 26
Full

Hourly Weather History & Observations

Time (MST) Temp. Windchill Dew Point Humidity Pressure Visibility Wind Dir Wind Speed Gust Speed Precip Events Conditions
12:15 AM 44.6 °F 43.1 °F 39.2 °F 81% 29.98 in 10.0 mi SE 3.5 mph - N/A   Overcast
12:35 AM 44.6 °F - 39.2 °F 81% 29.98 in 10.0 mi Calm Calm - N/A   Overcast
12:55 AM 42.8 °F 40.1 °F 39.2 °F 87% 29.98 in 10.0 mi SE 4.6 mph - N/A   Overcast
1:15 AM 42.8 °F 40.1 °F 39.2 °F 87% 29.98 in 10.0 mi SE 4.6 mph - N/A   Overcast
1:35 AM 42.8 °F 39.3 °F 37.4 °F 81% 29.99 in 10.0 mi SSE 5.8 mph - N/A   Overcast
1:55 AM 42.8 °F 40.1 °F 37.4 °F 81% 29.99 in 10.0 mi SE 4.6 mph - N/A   Mostly Cloudy
2:15 AM 42.8 °F 41.1 °F 37.4 °F 81% 29.99 in 10.0 mi SE 3.5 mph - N/A   Partly Cloudy
2:35 AM 42.8 °F - 37.4 °F 81% 30.00 in 10.0 mi Calm Calm - N/A   Partly Cloudy
2:55 AM 42.8 °F 40.1 °F 37.4 °F 81% 30.00 in 10.0 mi South 4.6 mph - N/A   Scattered Clouds
3:15 AM 42.8 °F 39.3 °F 37.4 °F 81% 30.01 in 10.0 mi South 5.8 mph - N/A   Mostly Cloudy
3:35 AM 42.8 °F 39.3 °F 37.4 °F 81% 30.01 in 10.0 mi SSW 5.8 mph - N/A   Overcast
3:55 AM 42.8 °F 38.0 °F 37.4 °F 81% 30.01 in 10.0 mi South 8.1 mph - N/A   Overcast
4:15 AM 42.8 °F 38.0 °F 37.4 °F 81% 30.01 in 10.0 mi South 8.1 mph - N/A   Overcast
4:35 AM 42.8 °F 38.0 °F 37.4 °F 81% 30.01 in 10.0 mi South 8.1 mph - N/A   Mostly Cloudy
4:55 AM 42.8 °F 39.3 °F 37.4 °F 81% 30.02 in 10.0 mi South 5.8 mph - N/A   Mostly Cloudy
5:15 AM 42.8 °F 41.1 °F 37.4 °F 81% 30.02 in 10.0 mi South 3.5 mph - N/A   Mostly Cloudy
5:55 AM 42.8 °F - 37.4 °F 81% 30.04 in 10.0 mi Calm Calm - N/A   Partly Cloudy
6:15 AM 41.0 °F - 37.4 °F 87% 30.04 in 10.0 mi Calm Calm - N/A   Clear
6:35 AM 41.0 °F 36.4 °F 37.4 °F 87% 30.05 in 10.0 mi SW 6.9 mph - N/A   Scattered Clouds
6:55 AM 41.0 °F 38.0 °F 37.4 °F 87% 30.06 in 10.0 mi SSW 4.6 mph - N/A   Overcast
7:15 AM 39.2 °F 35.9 °F 35.6 °F 87% 30.06 in 10.0 mi SSW 4.6 mph - N/A   Scattered Clouds
7:35 AM 39.2 °F 35.0 °F 35.6 °F 87% 30.07 in 10.0 mi WSW 5.8 mph - N/A   Clear
7:55 AM 39.2 °F 37.0 °F 35.6 °F 87% 30.08 in 10.0 mi SW 3.5 mph - N/A   Clear
8:15 AM 39.2 °F 35.0 °F 35.6 °F 87% 30.09 in 10.0 mi SW 5.8 mph - N/A   Clear
8:35 AM 41.0 °F 39.0 °F 37.4 °F 87% 30.10 in 10.0 mi SW 3.5 mph - N/A   Clear
8:55 AM 42.8 °F - 37.4 °F 81% 30.10 in 10.0 mi Calm Calm - N/A   Clear
9:15 AM 44.6 °F - 37.4 °F 76% 30.11 in 10.0 mi Calm Calm - N/A   Clear
9:35 AM 44.6 °F - 37.4 °F 76% 30.13 in 10.0 mi Calm Calm - N/A   Clear
9:55 AM 46.4 °F 42.9 °F 37.4 °F 71% 30.14 in 10.0 mi SW 6.9 mph - N/A   Clear
10:15 AM 46.4 °F 42.4 °F 37.4 °F 71% 30.14 in 10.0 mi SW 8.1 mph - N/A   Clear
10:35 AM 46.4 °F 41.9 °F 35.6 °F 66% 30.15 in 10.0 mi WSW 9.2 mph - N/A   Clear
10:55 AM 48.2 °F - 35.6 °F 62% 30.15 in 10.0 mi WSW 10.4 mph - N/A   Clear
11:15 AM 48.2 °F - 35.6 °F 62% 30.15 in 10.0 mi West 10.4 mph - N/A   Clear
11:35 AM 48.2 °F - 35.6 °F 62% 30.15 in 10.0 mi WSW 9.2 mph - N/A   Clear
11:55 AM 48.2 °F - 35.6 °F 62% 30.15 in 10.0 mi WSW 9.2 mph - N/A   Clear
12:15 PM 50.0 °F - 35.6 °F 58% 30.14 in 10.0 mi West 10.4 mph - N/A   Clear
12:35 PM 51.8 °F - 33.8 °F 50% 30.14 in 10.0 mi WSW 11.5 mph - N/A   Clear
12:55 PM 51.8 °F - 33.8 °F 50% 30.13 in 10.0 mi West 10.4 mph - N/A   Partly Cloudy
1:15 PM 51.8 °F - 32.0 °F 47% 30.13 in 10.0 mi West 12.7 mph 17.3 mph N/A   Partly Cloudy
1:35 PM 51.8 °F - 30.2 °F 44% 30.12 in 10.0 mi WNW 9.2 mph - N/A   Clear
1:55 PM 51.8 °F - 32.0 °F 47% 30.12 in 10.0 mi West 10.4 mph - N/A   Clear
2:15 PM 51.8 °F - 30.2 °F 44% 30.13 in 10.0 mi WNW 8.1 mph - N/A   Partly Cloudy
2:35 PM 51.8 °F - 28.4 °F 41% 30.13 in 10.0 mi WSW 10.4 mph - N/A   Clear
2:55 PM 51.8 °F - 28.4 °F 41% 30.13 in 10.0 mi WNW 8.1 mph - N/A   Clear
3:35 PM 51.8 °F - 26.6 °F 38% 30.13 in 10.0 mi WNW 11.5 mph - N/A   Clear
3:55 PM 51.8 °F - 26.6 °F 38% 30.13 in 10.0 mi West 11.5 mph - N/A   Clear
4:15 PM 51.8 °F - 26.6 °F 38% 30.14 in 10.0 mi West 9.2 mph - N/A   Clear
4:35 PM 51.8 °F - 26.6 °F 38% 30.14 in 10.0 mi West 5.8 mph - N/A   Clear
4:55 PM 51.8 °F - 26.6 °F 38% 30.14 in 10.0 mi West 5.8 mph - N/A   Clear
5:15 PM 51.8 °F - 26.6 °F 38% 30.15 in 10.0 mi West 5.8 mph - N/A   Clear
5:35 PM 50.0 °F - 26.6 °F 40% 30.15 in 10.0 mi Calm Calm - N/A   Clear
6:15 PM 48.2 °F - 24.8 °F 40% 30.16 in 10.0 mi West 5.8 mph - N/A   Clear
6:35 PM 46.4 °F 43.5 °F 24.8 °F 43% 30.16 in 10.0 mi West 5.8 mph - N/A   Clear
6:55 PM 46.4 °F 43.5 °F 24.8 °F 43% 30.16 in 10.0 mi West 5.8 mph - N/A   Clear
7:15 PM 44.6 °F 42.2 °F 24.8 °F 46% 30.17 in 10.0 mi West 4.6 mph - N/A   Clear
7:35 PM 44.6 °F 41.4 °F 24.8 °F 46% 30.17 in 10.0 mi WNW 5.8 mph - N/A   Clear
7:55 PM 44.6 °F 42.2 °F 24.8 °F 46% 30.18 in 10.0 mi WNW 4.6 mph - N/A   Clear
8:15 PM 44.6 °F 42.2 °F 24.8 °F 46% 30.18 in 10.0 mi WNW 4.6 mph - N/A   Clear
8:35 PM 42.8 °F 41.1 °F 24.8 °F 49% 30.18 in 10.0 mi WNW 3.5 mph - N/A   Clear
8:55 PM 41.0 °F 39.0 °F 24.8 °F 53% 30.19 in 10.0 mi WNW 3.5 mph - N/A   Clear
9:15 PM 39.2 °F 37.0 °F 24.8 °F 56% 30.19 in 10.0 mi West 3.5 mph - N/A   Clear
9:35 PM 39.2 °F - 24.8 °F 56% 30.19 in 10.0 mi Calm Calm - N/A   Clear
9:55 PM 39.2 °F - 24.8 °F 56% 30.19 in 10.0 mi Calm Calm - N/A   Clear
10:15 PM 39.2 °F - 26.6 °F 61% 30.20 in 10.0 mi Calm Calm - N/A   Clear
10:35 PM 39.2 °F 37.0 °F 24.8 °F 56% 30.20 in 10.0 mi West 3.5 mph - N/A   Clear
10:55 PM 37.4 °F - 24.8 °F 60% 30.21 in 10.0 mi Calm Calm - N/A   Clear
11:15 PM 39.2 °F 33.6 °F 23.0 °F 52% 30.21 in 10.0 mi WNW 8.1 mph - N/A   Clear
11:35 PM 39.2 °F - 23.0 °F 52% 30.21 in 10.0 mi Calm Calm - N/A   Clear